User: anonymous   Login
Location: Unspecified
(0.0000°N, 0.0000°E)
Time: 22:09:31
(UTC+00:00)
Language:

Aussat K1 - Orbit

View from above orbital plane
View from above orbital plane
View from above satellite
View from above satellite

Ground track
Ground track

The orbit data is extracted from the following two-line orbital elements,

1 15993U 85076B   15139.81746900 -.00000075  00000-0  00000+0 0  9999
2 15993 015.0546 015.5016 0001566 222.2347 301.9907 00.99767467 79211
Epoch (UTC): 19 May 2015 19:37:09
Eccentricity: 0.0001566
inclination: 15.0546°
perigee height: 35921 km
apogee height: 35935 km
right ascension of ascending node: 15.5016°
argument of perigee: 222.2347°
revolutions per day: 0.99767467
mean anomaly at epoch: 301.9907°
orbit number at epoch: 7921

The dashed part of the orbit path shows where the satellite is in the earth's shadow,  

DLR